Stations météo

réclame
Mon MeteoGroup
Chieming, Allemagne (10982): Température de l'air & dewpoint: 15.09.2018 23:00:00 - 21.09.2018 23:00:00 (CEST)Chieming, Allemagne (10982): Température de l'air 5cm & Température de l'air -5cm: 15.09.2018 23:00:00 - 21.09.2018 23:00:00 (CEST)Chieming, Allemagne (10982): Température de l'air -20cm & Température de l'air -100cm: 15.09.2018 23:00:00 - 21.09.2018 23:00:00 (CEST)Chieming, Allemagne (10982): Vitesse du vent & gusts: 15.09.2018 23:00:00 - 21.09.2018 23:00:00 (CEST)Chieming, Allemagne (10982): Direction du vent: 15.09.2018 23:00:00 - 21.09.2018 23:00:00 (CEST)Chieming, Allemagne (10982): reduced air pressure: 15.09.2018 23:00:00 - 21.09.2018 23:00:00 (CEST)Chieming, Allemagne (10982): visibility: 15.09.2018 23:00:00 - 21.09.2018 23:00:00 (CEST)Chieming, Allemagne (10982): Ensoleillement: 15.09.2018 23:00:00 - 21.09.2018 23:00:00 (CEST)Chieming, Allemagne (10982): Quantités de précipitations: 15.09.2018 23:00:00 - 21.09.2018 23:00:00 (CEST)
Date & Time tt [°C] td [°C] tt 5cm [°C] tt -5cm [°C] tt -20cm [°C] tt -100cm [°C] ff [km/h] ff [knt] fx [km/h] fx [knt] dd ppp [hPa] vv [km] sd [min] rr [mm]
21.09.2018 23:00:00 15,6 11,9 15,1 19,1 20,6 18,5 28 15 54 29 NW 1017,2 16 0 0,0
21.09.2018 22:00:00 20,4 14,7 19,3 19,8 20,8 18,5 22 12 46 25 WSW 1014,0 24 0 0,0
21.09.2018 21:00:00 22,3 13,8 20,9 20,6 21,0 18,5 20 11 39 21 WNW 1012,9 18 0 0,0
21.09.2018 20:00:00 23,1 13,5 20,8 21,4 21,1 18,5 10 5 23 12 NW 1010,9 23 0 0,0
21.09.2018 19:00:00 21,5 16,6 19,6 22,3 21,1 18,5 6 3 11 6 SSE 1009,9 9 0 0,0
21.09.2018 18:00:00 23,6 14,1 21,8 23,5 20,9 18,5 7 4 10 6 SSE 1009,6 27 24 0,0
21.09.2018 17:00:00 26,4 12,5 27,5 24,3 20,5 18,5 8 4 14 8 WSW 1009,7 18 60 0,0
21.09.2018 16:00:00 25,7 14,6 29,5 24,4 20,0 18,5 9 5 16 9 W 1010,3 20 60 0,0
21.09.2018 15:00:00 25,5 14,6 28,9 24,1 19,4 18,5 10 5 16 9 W 1010,7 20 60 0,0
21.09.2018 14:00:00 25,5 13,3 29,7 23,5 18,8 18,5 11 6 21 11 WSW 1011,5 13 60 0,0
21.09.2018 13:00:00 25,3 14,2 29,9 22,7 18,1 18,5 10 5 14 8 WSW 1012,1 24 60 0,0
21.09.2018 12:00:00 24,4 15,3 29,2 21,0 17,5 18,5 6 4 10 5 SW 1012,5 19 60 0,0
21.09.2018 11:00:00 22,4 13,5 25,9 18,7 17,2 18,5 3 2 15 8 E 1013,1 21 60 0,0
21.09.2018 10:00:00 19,8 12,8 21,9 16,7 17,1 18,5 6 4 9 5 S 1014,0 22 60 0,0
21.09.2018 09:00:00 16,6 12,8 17,6 14,9 17,2 18,5 6 3 8 5 NE 1014,5 17 60 0,0
21.09.2018 08:00:00 13,1 10,9 11,8 13,9 17,4 18,5 6 4 11 6 ENE 1015,3 21 22 0,0
21.09.2018 07:00:00 12,8 11,0 10,2 14,0 17,7 18,5 7 4 10 5 E 1015,2 22 0 0,0
21.09.2018 06:00:00 11,4 10,7 9,8 14,4 18,0 18,5 7 4 12 7 E 1015,6 17 0 0,0
21.09.2018 05:00:00 13,9 11,9 10,3 14,8 18,3 18,5 5 3 11 6 SE 1015,3 27 0 0,0
21.09.2018 04:00:00 13,1 11,5 10,7 15,1 18,7 18,5 5 3 8 4 ENE 1015,9 19 0 0,0
21.09.2018 03:00:00 13,9 11,9 11,0 15,6 19,0 18,5 6 3 11 6 E 1016,2 19 0 0,0
21.09.2018 02:00:00 14,6 12,5 11,2 16,1 19,3 18,5 3 2 9 5 E 1016,4 21 0 0,0
21.09.2018 01:00:00 13,8 12,9 11,8 16,6 19,7 18,5 7 4 9 5 E 1016,9 17 0 0,0
21.09.2018 00:00:00 15,2 13,3 12,4 17,2 20,1 18,5 4 2 11 6 E 1017,2 16 0 0,0
20.09.2018 23:00:00 16,8 13,4 13,7 17,9 20,4 18,5 8 4 11 6 E 1017,3 18 0 0,0
20.09.2018 22:00:00 16,1 14,0 13,6 18,6 20,8 18,5 9 5 13 7 E 1017,7 16 0 0,0
20.09.2018 21:00:00 16,4 13,8 14,2 19,6 21,1 18,5 9 5 10 5 E 1017,9 14 0 0,0
20.09.2018 20:00:00 19,7 14,3 16,0 20,8 21,2 18,5 7 4 9 5 E 1017,3 20 0 0,0
20.09.2018 19:00:00 21,5 14,9 18,2 22,1 21,2 18,5 8 5 11 6 E 1016,9 27 41 0,0
20.09.2018 18:00:00 22,9 15,3 22,7 23,0 21,0 18,5 10 6 17 9 ENE 1017,1 22 60 0,0
20.09.2018 17:00:00 24,0 14,3 25,0 23,6 20,7 18,5 13 7 18 10 ENE 1017,2 20 60 0,0
20.09.2018 16:00:00 24,5 13,4 26,4 24,0 20,2 18,5 13 7 18 10 NE 1017,4 12 60 0,0
20.09.2018 15:00:00 24,9 15,5 28,1 24,1 19,6 18,5 10 5 16 8 ENE 1017,8 10 60 0,0
20.09.2018 14:00:00 24,6 16,1 31,1 23,6 18,9 18,5 4 2 11 6 W 1018,4 15 60 0,0
20.09.2018 13:00:00 22,7 15,1 29,4 22,5 18,3 18,5 6 3 10 5 WNW 1019,6 24 60 0,0
20.09.2018 12:00:00 21,7 14,7 27,2 21,0 17,8 18,5 6 3 10 6 W 1020,4 17 60 0,0
20.09.2018 11:00:00 20,6 13,6 26,9 19,8 17,5 18,5 6 3 9 5 NW 1021,0 18 57 0,0
20.09.2018 10:00:00 18,9 14,4 22,6 18,3 17,2 18,5 5 3 7 4 SSW 1021,4 13 60 0,0
20.09.2018 09:00:00 17,2 14,2 16,8 15,6 17,3 18,5 3 2 8 5 ESE 1021,7 16 60 0,0
20.09.2018 08:00:00 13,4 12,2 12,9 14,0 17,5 18,5 1 1 6 3 E 1022,6 18 22 0,0
20.09.2018 07:00:00 12,0 12,0 10,8 13,9 17,8 18,5 7 4 8 4 E 1022,5 10 0 0,0
20.09.2018 06:00:00 12,7 12,7 11,0 14,2 18,1 18,5 6 3 7 4 E 1022,2 8 0 0,0
20.09.2018 05:00:00 13,4 13,2 11,4 14,5 18,4 18,5 4 2 10 5 E 1022,1 12 0 0,0
20.09.2018 04:00:00 13,1 12,6 11,1 14,9 18,7 18,5 6 3 7 4 E 1022,1 15 0 0,0
20.09.2018 03:00:00 13,1 12,8 11,5 15,3 19,0 18,5 5 3 8 4 E 1022,1 13 0 0,0
20.09.2018 02:00:00 13,3 13,1 11,6 15,7 19,4 18,5 7 4 9 5 E 1022,4 15 0 0,0
20.09.2018 01:00:00 13,8 13,3 11,9 16,2 19,8 18,5 5 3 9 5 E 1022,4 14 0 0,0
20.09.2018 00:00:00 13,9 13,5 12,5 16,8 20,1 18,5 6 4 9 5 E 1022,5 12 0 0,0
19.09.2018 23:00:00 14,6 14,0 13,0 17,5 20,5 18,5 7 4 9 5 E 1022,5 13 0 0,0
19.09.2018 22:00:00 15,4 14,6 13,7 18,3 20,9 18,5 8 4 9 5 E 1022,2 15 0 0,0
19.09.2018 21:00:00 16,6 15,2 14,7 19,3 21,3 18,5 5 3 9 5 SSE 1021,8 24 0 0,0
19.09.2018 20:00:00 19,2 15,2 15,7 20,4 21,5 18,5 8 4 10 5 E 1020,8 19 0 0,0
19.09.2018 19:00:00 20,9 15,3 18,8 22,1 21,5 18,5 5 3 6 4 S 1020,2 18 43 0,0
19.09.2018 18:00:00 23,0 15,0 23,8 23,3 21,4 18,5 4 2 7 4 WSW 1019,4 19 60 0,0
19.09.2018 17:00:00 23,1 14,1 27,1 24,2 21,1 18,4 5 3 10 5 W 1019,5 18 60 0,0
19.09.2018 16:00:00 23,0 14,8 28,1 24,9 20,6 18,4 7 4 10 5 WSW 1019,8 17 60 0,0
19.09.2018 15:00:00 22,9 14,0 27,9 25,0 20,0 18,4 4 2 10 5 WSW 1020,2 17 54 0,0
19.09.2018 14:00:00 22,9 12,6 29,8 25,0 19,4 18,4 4 2 9 5 SE 1020,6 16 59 0,0
19.09.2018 13:00:00 21,1 14,0 28,5 24,0 18,8 18,4 5 3 11 6 W 1021,1 16 50 0,0
19.09.2018 12:00:00 19,5 14,5 26,4 22,4 18,2 18,4 8 5 15 8 W 1021,6 16 46 0,0
19.09.2018 11:00:00 19,8 14,5 25,9 20,4 17,8 18,4 4 2 10 6 S 1021,7 13 58 0,0
19.09.2018 10:00:00 17,1 13,4 21,2 17,0 17,8 18,4 3 1 8 5 E 1021,9 21 10 0,0
19.09.2018 09:00:00 14,6 13,6 15,1 15,9 17,8 18,4 5 3 10 5 SSW 1022,2 19 0 0,0
19.09.2018 08:00:00 14,1 13,3 13,7 15,3 18,0 18,4 5 3 21 12 SSE 1022,1 27 0 0,0
19.09.2018 07:00:00 14,1 13,1 13,6 15,3 18,2 18,4 11 6 22 12 SW 1021,4 26 0 0,0
19.09.2018 06:00:00 14,6 13,0 13,5 15,5 18,4 18,4 16 9 26 14 SSW 1020,9 18 0 0,0
19.09.2018 05:00:00 13,6 13,6 13,2 15,9 18,5 18,4 5 3 8 4 SE 1021,1 8 0 0,0
19.09.2018 04:00:00 14,5 14,0 13,9 16,1 18,7 18,4 5 3 10 5 SE 1021,1 22 0 0,0
19.09.2018 03:00:00 14,7 14,0 14,0 16,1 18,8 18,4 7 4 13 7 E 1020,9 18 0 0,0
19.09.2018 02:00:00 14,3 14,0 13,5 16,2 19,0 18,4 6 4 14 7 E 1021,1 26 0 0,0
19.09.2018 01:00:00 15,2 14,5 14,6 16,4 19,2 18,4 8 4 23 12 ESE 1020,9 23 0 0,0
19.09.2018 00:00:00 15,0 14,6 14,5 16,3 19,4 18,3 12 7 24 13 SE 1020,9 25 0 2,2
18.09.2018 23:00:00 15,1 14,5 14,5 16,3 19,6 18,3 10 5 27 14 S 1021,3 4,8 0 5,0
18.09.2018 22:00:00 15,6 14,4 14,6 16,1 20,0 18,3 20 11 55 30 SSW 1021,1 5 0 21,3
18.09.2018 21:00:00 16,4 15,7 15,4 20,3 21,8 18,3 31 17 51 28 SW 1020,0 0,7 0 7,5
18.09.2018 20:00:00 19,7 16,9 18,4 21,9 22,0 18,3 4 2 10 6 S 1016,8 12 0 0,0
18.09.2018 19:00:00 22,8 16,3 19,1 23,4 22,0 18,3 3 1 4 2 SE 1015,5 16 29 0,0
18.09.2018 18:00:00 24,9 16,7 26,1 24,6 21,8 18,3 4 2 9 5 SW 1014,9 16 50 0,0
18.09.2018 17:00:00 25,5 15,9 30,4 25,7 21,4 18,3 5 3 9 5 W 1015,0 13 60 0,0
18.09.2018 16:00:00 26,0 16,3 33,8 26,1 20,9 18,3 4 2 10 5 SW 1015,3 16 51 0,0
18.09.2018 15:00:00 25,1 14,8 33,6 26,5 20,2 18,3 5 3 10 5 W 1016,1 17 60 0,0
18.09.2018 14:00:00 24,0 14,9 36,9 26,2 19,5 18,3 7 4 10 6 W 1016,8 26 60 0,0
18.09.2018 13:00:00 23,2 15,1 35,8 25,0 18,8 18,3 6 4 9 5 W 1017,1 16 60 0,0
18.09.2018 12:00:00 22,1 15,1 32,9 23,5 18,2 18,3 8 4 10 6 WSW 1017,6 14 60 0,0
18.09.2018 11:00:00 19,9 14,6 30,6 21,5 17,8 18,3 8 4 9 5 W 1018,3 10 60 0,0
18.09.2018 10:00:00 18,8 15,0 27,0 19,0 17,6 18,3 5 3 12 6 W 1018,1 8 60 0,0
18.09.2018 09:00:00 17,9 14,2 19,2 16,6 17,6 18,3 8 5 14 8 S 1018,0 5 60 0,0
18.09.2018 08:00:00 14,3 13,4 14,1 14,9 17,8 18,3 5 3 10 5 E 1018,7 12 25 0,0
18.09.2018 07:00:00 12,9 12,9 11,4 14,8 18,1 18,3 8 4 9 5 E 1018,5 7 0 0,0
18.09.2018 06:00:00 13,2 13,1 11,5 15,1 18,3 18,3 5 3 11 6 ENE 1018,2 8 0 0,0
18.09.2018 05:00:00 13,5 13,5 11,9 15,4 18,6 18,3 6 3 9 5 E 1018,4 5 0 0,0
18.09.2018 04:00:00 13,8 13,6 12,0 15,8 18,9 18,3 6 4 11 6 ENE 1018,2 8 0 0,0
18.09.2018 03:00:00 15,9 15,1 12,8 16,2 19,2 18,3 3 1 11 6 SE 1017,8 14 0 0,0
18.09.2018 02:00:00 14,7 14,2 13,1 16,6 19,5 18,3 9 5 10 6 E 1018,4 9 0 0,0
18.09.2018 01:00:00 14,6 14,1 13,2 17,1 19,8 18,3 9 5 10 5 ENE 1018,6 8 0 0,0
18.09.2018 00:00:00 15,6 14,7 14,1 17,6 20,1 18,3 5 3 8 4 SSE 1018,7 10 0 0,0
17.09.2018 23:00:00 15,9 14,8 14,3 18,2 20,5 18,3 7 4 9 5 E 1019,1 11 0 0,0
17.09.2018 22:00:00 17,3 15,7 14,7 18,9 20,8 18,3 3 1 9 5 SE 1018,8 14 0 0,0
17.09.2018 21:00:00 18,2 16,0 15,3 19,7 21,1 18,3 8 5 9 5 E 1018,6 15 0 0,0
17.09.2018 20:00:00 19,2 16,3 16,1 20,7 21,3 18,3 8 4 9 5 E 1018,3 17 0 0,0
17.09.2018 19:00:00 21,3 16,0 19,3 21,9 21,3 18,3 9 5 15 8 ENE 1017,8 15 46 0,0
17.09.2018 18:00:00 23,0 14,3 23,8 22,8 21,2 18,3 12 6 18 10 E 1017,5 12 60 0,0
17.09.2018 17:00:00 23,8 14,0 26,5 23,6 20,9 18,3 11 6 21 12 NE 1017,9 12 60 0,0
17.09.2018 16:00:00 23,7 14,5 28,2 24,4 20,5 18,3 14 7 23 12 ENE 1018,2 11 60 0,0
17.09.2018 15:00:00 23,8 15,5 29,2 24,8 19,9 18,3 11 6 19 10 ENE 1018,5 10 59 0,0
17.09.2018 14:00:00 23,4 16,8 34,7 25,3 19,3 18,3 7 4 13 7 W 1019,0 14 60 0,0
17.09.2018 13:00:00 21,8 15,9 35,2 24,5 18,6 18,3 6 4 10 6 W 1020,0 13 60 0,0
17.09.2018 12:00:00 20,4 14,7 33,0 23,0 18,0 18,3 8 4 10 6 WNW 1020,8 13 60 0,0
17.09.2018 11:00:00 20,2 16,3 29,7 20,4 17,7 18,3 5 3 12 7 SSW 1021,4 17 51 0,0
17.09.2018 10:00:00 18,0 14,9 21,2 17,8 17,6 18,3 4 2 10 5 S 1022,3 13 23 0,0
17.09.2018 09:00:00 16,4 14,5 17,7 16,6 17,6 18,3 9 5 11 6 SSW 1022,5 14 2 0,0
17.09.2018 08:00:00 15,1 14,4 14,8 15,8 17,7 18,3 5 3 10 5 ENE 1022,6 10 0 0,0
17.09.2018 07:00:00 14,6 14,1 14,1 15,8 17,8 18,3 6 3 10 6 ENE 1022,0 12 0 0,0
17.09.2018 06:00:00 14,6 14,0 13,9 15,8 17,9 18,3 5 3 8 4 E 1021,8 10 0 0,0
17.09.2018 05:00:00 14,5 13,9 13,8 15,8 18,1 18,3 7 4 10 5 E 1021,6 14 0 0,0
17.09.2018 04:00:00 14,8 14,4 13,9 15,8 18,3 18,3 3 2 9 5 SSE 1021,8 12 0 0,0
17.09.2018 03:00:00 13,5 13,5 13,0 15,7 18,5 18,3 5 3 9 5 ENE 1022,2 8 0 0,0
17.09.2018 02:00:00 14,2 14,2 12,1 16,0 18,8 18,3 5 3 8 5 SSE 1022,2 7 0 0,0
17.09.2018 01:00:00 15,0 14,7 12,6 16,5 19,1 18,3 4 2 10 5 S 1022,2 10 0 0,0
17.09.2018 00:00:00 15,7 15,1 14,3 16,9 19,4 18,3 7 4 11 6 S 1021,8 9 0 0,0
16.09.2018 23:00:00 15,5 15,2 13,5 17,4 19,7 18,3 6 3 8 5 SSE 1021,8 9 0 0,0
16.09.2018 22:00:00 16,2 15,4 14,0 18,0 20,0 18,3 0 0 5 3 N 1021,6 12 0 0,0
16.09.2018 21:00:00 17,6 15,4 15,0 18,8 20,2 18,3 4 2 8 4 ESE 1020,9 17 0 0,0
16.09.2018 20:00:00 18,4 15,8 15,4 19,7 20,4 18,3 7 4 12 7 ENE 1020,3 12 0 0,0
16.09.2018 19:00:00 20,3 15,9 18,4 20,8 20,5 18,3 8 4 14 8 NE 1019,5 14 24 0,0
16.09.2018 18:00:00 21,6 15,9 22,3 21,7 20,3 18,3 10 6 18 10 NE 1019,3 20 60 0,0
16.09.2018 17:00:00 22,0 15,1 24,9 22,6 20,0 18,3 12 7 25 13 NE 1019,3 12 60 0,0
16.09.2018 16:00:00 22,1 15,8 27,0 23,1 19,6 18,3 13 7 23 12 NE 1019,7 14 60 0,0
16.09.2018 15:00:00 21,7 14,9 27,9 23,1 19,0 18,4 11 6 22 12 ENE 1020,2 14 60 0,0
16.09.2018 14:00:00 21,0 14,7 28,1 22,8 18,4 18,4 12 6 21 11 ENE 1020,9 11 60 0,0
16.09.2018 13:00:00 20,0 14,9 25,7 22,0 17,8 18,4 16 9 22 12 NE 1021,4 7 60 0,0
16.09.2018 12:00:00 19,7 14,4 25,8 21,2 17,3 18,4 11 6 17 9 NE 1022,1 13 60 0,0
16.09.2018 11:00:00 18,4 14,5 24,5 19,4 16,9 18,4 8 5 15 8 NE 1022,7 9 60 0,0
16.09.2018 10:00:00 16,5 14,2 20,7 17,3 16,7 18,4 13 7 18 10 ENE 1023,1 10 60 0,0
16.09.2018 09:00:00 15,0 13,7 16,0 15,4 16,7 18,4 12 7 16 9 ENE 1023,2 10 60 0,0
16.09.2018 08:00:00 13,2 12,7 13,0 14,0 16,9 18,4 8 4 11 6 E 1023,9 7 21 0,0
16.09.2018 07:00:00 11,9 11,9 10,8 14,0 17,2 18,4 9 5 11 6 E 1024,3 3,3 0 0,0
16.09.2018 06:00:00 12,4 12,4 10,8 14,4 17,4 18,4 6 4 13 7 E 1024,1 1,0 0 0,0
16.09.2018 05:00:00 13,0 13,0 12,5 14,6 17,7 18,4 10 5 14 8 E 1024,3 0,2 0 0,0
16.09.2018 04:00:00 12,3 12,0 10,7 15,1 17,9 18,4 7 4 9 5 E 1024,6 4,9 0 0,0
16.09.2018 03:00:00 13,3 13,0 11,2 15,8 18,1 18,4 8 4 11 6 ENE 1024,9 8 0 0,0
16.09.2018 02:00:00 14,7 14,0 14,0 16,4 18,3 18,4 9 5 11 6 ENE 1024,9 10 0 0,0
16.09.2018 01:00:00 14,7 14,2 14,3 16,5 18,4 18,4 6 4 8 5 E 1025,3 9 0 0,0
16.09.2018 00:00:00 15,4 14,5 14,6 17,0 18,6 18,4 6 3 8 4 SSE 1025,0 11 0 0,0
15.09.2018 23:00:00 15,8 14,9 15,4 17,3 18,7 18,4 6 4 10 6 ENE 1025,1 10 0 0,0

tt = Température de l'air
td = dewpoint
tt 5cm = Température de l'air 5cm
tt -5cm = Température de l'air -5cm
tt -20cm = Température de l'air -20cm
tt -100cm = Température de l'air -100cm
ff = Vitesse du vent
fx = gusts
dd = Direction du vent
ppp = reduced air pressure
vv = visibility
sd = Ensoleillement
rr = Quantités de précipitations

stations d'obs. à proximité